UKV5035 RJBB-RJOC

Flight info

Callsign UKV5035
Flight time 0h 42m
Altitude 20000
Route MAIKO ASAGI KCE47 TOZAN Y188 RAKDA
Aircraft A321/M-SDE3FGHIRWY/LB1

Departure

Time 2026-05-07 12:23
Airport Kansai International Airport (RJBB)

Arrival

Time 2026-05-07 13:05
Airport Izumo Enmusubi Airport (RJOC)
Time Latitude Longitude Altitude Speed Heading
2026-05-07 11:51 34.43568 135.23017 49 ft 0 kts 51°
2026-05-07 12:15 34.43570 135.23021 45 ft 1 kts 52°
2026-05-07 12:16 34.43570 135.23036 47 ft 1 kts 103°
2026-05-07 12:16 34.43565 135.23037 46 ft 1 kts 159°
2026-05-07 12:16 34.43561 135.23033 47 ft 1 kts 205°
2026-05-07 12:16 34.43557 135.23021 47 ft 3 kts 243°
2026-05-07 12:17 34.43544 135.22987 47 ft 6 kts 244°
2026-05-07 12:17 34.43537 135.22936 49 ft 7 kts 300°
2026-05-07 12:17 34.43581 135.22889 49 ft 10 kts 319°
2026-05-07 12:17 34.43636 135.22830 49 ft 12 kts 317°
2026-05-07 12:18 34.43703 135.22763 46 ft 13 kts 321°
2026-05-07 12:18 34.43787 135.22717 49 ft 14 kts 14°
2026-05-07 12:18 34.43832 135.22756 49 ft 15 kts 37°
2026-05-07 12:18 34.43930 135.22759 49 ft 15 kts 16°
2026-05-07 12:19 34.44006 135.22851 49 ft 16 kts 51°
2026-05-07 12:19 34.44081 135.22963 49 ft 18 kts 51°
2026-05-07 12:19 34.44164 135.23086 49 ft 20 kts 50°
2026-05-07 12:19 34.44253 135.23217 48 ft 20 kts 43°
2026-05-07 12:20 34.44373 135.23231 49 ft 17 kts 33°
2026-05-07 12:20 34.44453 135.23345 49 ft 18 kts 51°
2026-05-07 12:20 34.44537 135.23470 48 ft 20 kts 51°
2026-05-07 12:20 34.44627 135.23603 49 ft 21 kts 51°
2026-05-07 12:21 34.44724 135.23747 49 ft 23 kts 51°
2026-05-07 12:21 34.44827 135.23900 49 ft 23 kts 51°
2026-05-07 12:21 34.44919 135.24036 48 ft 24 kts 51°
2026-05-07 12:21 34.45056 135.24051 48 ft 19 kts 322°
2026-05-07 12:22 34.45072 135.23912 48 ft 19 kts 238°
2026-05-07 12:22 34.44901 135.23655 51 ft 74 kts 230°
2026-05-07 12:22 34.44416 135.22938 50 ft 142 kts 230°
2026-05-07 12:22 34.43741 135.21927 523 ft 154 kts 230°
2026-05-07 12:23 34.43233 135.20789 1244 ft 161 kts 259°
2026-05-07 12:23 34.43472 135.19431 1913 ft 175 kts 295°
2026-05-07 12:23 34.44169 135.18128 2261 ft 195 kts 299°
2026-05-07 12:23 34.44971 135.16677 2528 ft 218 kts 301°
2026-05-07 12:24 34.45940 135.15140 2754 ft 244 kts 316°
2026-05-07 12:24 34.47543 135.14266 3152 ft 267 kts 349°
2026-05-07 12:24 34.49176 135.13994 3879 ft 271 kts 351°
2026-05-07 12:24 34.51024 135.13693 4789 ft 272 kts 351°
2026-05-07 12:25 34.52890 135.13382 5661 ft 275 kts 350°
2026-05-07 12:25 34.54654 135.13080 6430 ft 279 kts 349°
2026-05-07 12:25 34.56591 135.12740 7204 ft 283 kts 347°
2026-05-07 12:25 34.58456 135.11996 7947 ft 282 kts 326°
2026-05-07 12:26 34.59902 135.10502 8720 ft 278 kts 303°
2026-05-07 12:26 34.60778 135.08478 9510 ft 273 kts 282°
2026-05-07 12:26 34.61002 135.06202 10255 ft 274 kts 268°
2026-05-07 12:26 34.61189 135.03802 10522 ft 300 kts 279°
2026-05-07 12:27 34.61944 135.01313 10710 ft 329 kts 295°
2026-05-07 12:27 34.63371 134.99039 11133 ft 348 kts 312°
2026-05-07 12:27 34.65365 134.97298 11779 ft 360 kts 328°
2026-05-07 12:27 34.67650 134.95984 12452 ft 365 kts 330°
2026-05-07 12:28 34.69938 134.94688 13130 ft 369 kts 330°
2026-05-07 12:28 34.72291 134.93355 13791 ft 373 kts 330°
2026-05-07 12:28 34.74662 134.92010 14379 ft 377 kts 330°
2026-05-07 12:28 34.77052 134.90652 14991 ft 380 kts 330°
2026-05-07 12:29 34.79463 134.89278 15585 ft 384 kts 330°
2026-05-07 12:29 34.81891 134.87892 16206 ft 387 kts 330°
2026-05-07 12:29 34.84320 134.86508 16788 ft 391 kts 330°
2026-05-07 12:29 34.86796 134.85097 17406 ft 394 kts 330°
2026-05-07 12:30 34.89296 134.83673 18016 ft 398 kts 330°
2026-05-07 12:30 34.91815 134.82240 18569 ft 401 kts 329°
2026-05-07 12:30 34.94351 134.80798 19096 ft 404 kts 329°
2026-05-07 12:30 34.96913 134.79337 19619 ft 407 kts 329°
2026-05-07 12:31 34.99490 134.77864 19873 ft 410 kts 329°
2026-05-07 12:31 35.02087 134.76372 19946 ft 418 kts 328°
2026-05-07 12:31 35.04555 134.74585 19951 ft 417 kts 318°
2026-05-07 12:31 35.06752 134.72301 19948 ft 412 kts 310°
2026-05-07 12:32 35.08825 134.69858 19951 ft 413 kts 310°
2026-05-07 12:32 35.10900 134.67429 19956 ft 413 kts 310°
2026-05-07 12:32 35.12980 134.65004 19949 ft 413 kts 311°
2026-05-07 12:32 35.15056 134.62580 19947 ft 413 kts 311°
2026-05-07 12:33 35.19208 134.57716 19955 ft 412 kts 310°
2026-05-07 12:33 35.21255 134.55317 19958 ft 413 kts 310°
2026-05-07 12:33 35.23330 134.52884 19956 ft 413 kts 310°
2026-05-07 12:34 35.25370 134.50410 19947 ft 410 kts 306°
2026-05-07 12:34 35.27049 134.47634 19946 ft 402 kts 296°
2026-05-07 12:34 35.28262 134.44588 19936 ft 395 kts 286°
2026-05-07 12:34 35.29190 134.41426 19946 ft 394 kts 285°
2026-05-07 12:35 35.30123 134.38263 19942 ft 394 kts 285°
2026-05-07 12:35 35.31061 134.35114 19936 ft 394 kts 285°
2026-05-07 12:35 35.32008 134.31953 19936 ft 395 kts 285°
2026-05-07 12:35 35.32954 134.28795 19935 ft 395 kts 285°
2026-05-07 12:36 35.33882 134.25675 19932 ft 395 kts 285°
2026-05-07 12:36 35.34886 134.22566 19928 ft 390 kts 293°
2026-05-07 12:36 35.36522 134.19907 19926 ft 396 kts 311°
2026-05-07 12:36 35.38846 134.18003 19924 ft 409 kts 330°
2026-05-07 12:37 35.41606 134.16968 19901 ft 417 kts 341°
2026-05-07 12:37 35.44426 134.16175 19443 ft 415 kts 341°
2026-05-07 12:37 35.47240 134.15393 18949 ft 412 kts 341°
2026-05-07 12:37 35.50033 134.14621 18466 ft 409 kts 341°
2026-05-07 12:38 35.52805 134.13859 17935 ft 406 kts 341°
2026-05-07 12:38 35.55555 134.13099 17381 ft 403 kts 341°
2026-05-07 12:38 35.58284 134.12341 16833 ft 399 kts 341°
2026-05-07 12:38 35.60978 134.11589 16294 ft 395 kts 341°
2026-05-07 12:39 35.63616 134.10850 15761 ft 392 kts 341°
2026-05-07 12:39 35.66271 134.10102 15221 ft 388 kts 341°
2026-05-07 12:39 35.68888 134.09362 14693 ft 384 kts 341°
2026-05-07 12:39 35.71483 134.08620 14160 ft 381 kts 341°
2026-05-07 12:40 35.74054 134.07877 13645 ft 378 kts 341°
2026-05-07 12:40 35.76606 134.07138 13083 ft 374 kts 341°
2026-05-07 12:40 35.79126 134.06403 12506 ft 370 kts 341°
2026-05-07 12:40 35.81589 134.05677 11952 ft 366 kts 341°
2026-05-07 12:41 35.84058 134.04943 11386 ft 362 kts 341°
2026-05-07 12:41 35.86496 134.04212 10841 ft 359 kts 341°
2026-05-07 12:41 35.88909 134.03481 10357 ft 354 kts 341°
2026-05-07 12:41 35.91250 134.02770 10240 ft 338 kts 340°
2026-05-07 12:42 35.92705 134.02126 10160 ft 321 kts 327°
2026-05-07 12:42 35.94358 134.00479 10044 ft 295 kts 302°
2026-05-07 12:42 35.95225 133.98344 9924 ft 274 kts 284°
2026-05-07 12:42 35.95741 133.96107 9649 ft 268 kts 281°
2026-05-07 12:43 35.96217 133.93890 9277 ft 266 kts 281°
2026-05-07 12:43 35.96688 133.91685 8896 ft 265 kts 281°
2026-05-07 12:43 35.97162 133.89487 8508 ft 265 kts 281°
2026-05-07 12:43 35.97639 133.87289 8136 ft 264 kts 281°
2026-05-07 12:44 35.98120 133.85099 7762 ft 263 kts 281°
2026-05-07 12:44 35.98605 133.82919 7394 ft 262 kts 281°
2026-05-07 12:44 35.99086 133.80791 7251 ft 259 kts 281°
2026-05-07 12:44 35.99588 133.78611 6922 ft 263 kts 281°
2026-05-07 12:45 36.00089 133.76449 6627 ft 260 kts 281°
2026-05-07 12:45 36.00590 133.74300 6285 ft 259 kts 281°
2026-05-07 12:45 36.00966 133.72150 5919 ft 251 kts 266°
2026-05-07 12:45 36.00594 133.70132 5583 ft 243 kts 244°
2026-05-07 12:46 35.99762 133.68344 5212 ft 240 kts 229°
2026-05-07 12:46 35.98572 133.66906 4853 ft 239 kts 224°
2026-05-07 12:46 35.97362 133.65498 4487 ft 238 kts 224°
2026-05-07 12:46 35.96155 133.64094 4123 ft 237 kts 225°
2026-05-07 12:47 35.94980 133.62731 4002 ft 235 kts 225°
2026-05-07 12:47 35.93779 133.61337 4005 ft 237 kts 225°
2026-05-07 12:47 35.92575 133.59944 4005 ft 238 kts 225°
2026-05-07 12:47 35.91367 133.58546 4001 ft 238 kts 225°
2026-05-07 12:48 35.90156 133.57147 4009 ft 239 kts 225°
2026-05-07 12:48 35.88941 133.55744 4008 ft 239 kts 225°
2026-05-07 12:48 35.87725 133.54344 4008 ft 239 kts 225°
2026-05-07 12:48 35.86526 133.52965 4005 ft 239 kts 225°
2026-05-07 12:49 35.85310 133.51566 4005 ft 238 kts 225°
2026-05-07 12:49 35.84101 133.50176 4005 ft 237 kts 224°
2026-05-07 12:49 35.82894 133.48788 4005 ft 238 kts 224°
2026-05-07 12:49 35.81686 133.47398 4005 ft 238 kts 224°
2026-05-07 12:50 35.80475 133.46006 4002 ft 238 kts 224°
2026-05-07 12:50 35.79267 133.44619 3990 ft 239 kts 224°
2026-05-07 12:50 35.78038 133.43207 4001 ft 243 kts 224°
2026-05-07 12:50 35.76824 133.41815 4003 ft 238 kts 224°
2026-05-07 12:51 35.75616 133.40429 4005 ft 236 kts 224°
2026-05-07 12:51 35.74451 133.39094 4001 ft 221 kts 224°
2026-05-07 12:51 35.73372 133.37861 4017 ft 201 kts 225°
2026-05-07 12:51 35.72407 133.36759 4006 ft 183 kts 225°
2026-05-07 12:52 35.71515 133.35740 4016 ft 159 kts 225°
2026-05-07 12:52 35.70770 133.34888 4032 ft 145 kts 226°
2026-05-07 12:52 35.70025 133.34030 4018 ft 150 kts 225°
2026-05-07 12:52 35.69258 133.33148 4010 ft 151 kts 225°
2026-05-07 12:53 35.68505 133.32282 4003 ft 144 kts 225°
2026-05-07 12:53 35.67775 133.31445 4003 ft 143 kts 225°
2026-05-07 12:53 35.67046 133.30608 3999 ft 144 kts 225°
2026-05-07 12:53 35.66311 133.29769 4003 ft 144 kts 225°
2026-05-07 12:54 35.65578 133.28927 4005 ft 144 kts 225°
2026-05-07 12:54 35.64853 133.28098 4006 ft 144 kts 225°
2026-05-07 12:54 35.64117 133.27256 4006 ft 144 kts 225°
2026-05-07 12:54 35.63382 133.26415 4007 ft 145 kts 225°
2026-05-07 12:55 35.62645 133.25573 4007 ft 145 kts 225°
2026-05-07 12:55 35.61908 133.24730 4007 ft 145 kts 225°
2026-05-07 12:55 35.61169 133.23884 4007 ft 145 kts 225°
2026-05-07 12:55 35.60429 133.23039 4007 ft 145 kts 225°
2026-05-07 12:56 35.59697 133.22204 4013 ft 141 kts 226°
2026-05-07 12:56 35.58987 133.21396 4010 ft 140 kts 226°
2026-05-07 12:56 35.58270 133.20580 4009 ft 140 kts 226°
2026-05-07 12:56 35.57552 133.19769 4008 ft 140 kts 224°
2026-05-07 12:57 35.56714 133.19154 4007 ft 139 kts 216°
2026-05-07 12:57 35.55959 133.18445 4009 ft 136 kts 226°
2026-05-07 12:57 35.55329 133.17573 4007 ft 137 kts 233°
2026-05-07 12:57 35.54765 133.16610 4002 ft 139 kts 236°
2026-05-07 12:58 35.54239 133.15623 4006 ft 138 kts 237°
2026-05-07 12:58 35.53745 133.14638 4011 ft 137 kts 238°
2026-05-07 12:58 35.53247 133.13634 3997 ft 138 kts 238°
2026-05-07 12:58 35.52752 133.12628 3955 ft 138 kts 238°
2026-05-07 12:59 35.52262 133.11611 3867 ft 137 kts 238°
2026-05-07 12:59 35.51771 133.10603 3754 ft 137 kts 239°
2026-05-07 12:59 35.51305 133.09600 3598 ft 137 kts 240°
2026-05-07 12:59 35.50824 133.08593 3447 ft 137 kts 238°
2026-05-07 13:00 35.50334 133.07593 3255 ft 137 kts 238°
2026-05-07 13:00 35.49846 133.06595 3090 ft 136 kts 239°
2026-05-07 13:00 35.49365 133.05596 2918 ft 136 kts 239°
2026-05-07 13:00 35.48890 133.04596 2766 ft 135 kts 239°
2026-05-07 13:01 35.48407 133.03604 2587 ft 135 kts 239°
2026-05-07 13:01 35.47932 133.02610 2343 ft 135 kts 239°
2026-05-07 13:01 35.47462 133.01618 2162 ft 133 kts 239°
2026-05-07 13:01 35.46989 133.00646 2027 ft 134 kts 238°
2026-05-07 13:02 35.46519 132.99662 1858 ft 133 kts 239°
2026-05-07 13:02 35.46055 132.98682 1684 ft 132 kts 240°
2026-05-07 13:02 35.45582 132.97712 1418 ft 133 kts 237°
2026-05-07 13:02 35.45085 132.96741 1179 ft 134 kts 239°
2026-05-07 13:03 35.44614 132.95752 1041 ft 134 kts 240°
2026-05-07 13:03 35.44149 132.94770 908 ft 133 kts 240°
2026-05-07 13:03 35.43678 132.93796 746 ft 132 kts 238°
2026-05-07 13:03 35.43215 132.92841 558 ft 132 kts 238°
2026-05-07 13:04 35.42754 132.91872 378 ft 130 kts 238°
2026-05-07 13:04 35.42289 132.90914 200 ft 131 kts 239°
2026-05-07 13:04 35.41832 132.89954 65 ft 128 kts 238°
2026-05-07 13:04 35.41418 132.89103 12 ft 102 kts 240°
2026-05-07 13:05 35.41204 132.88655 10 ft 18 kts 238°
2026-05-07 13:05 35.41174 132.88582 11 ft 5 kts 208°
2026-05-07 13:05 35.41171 132.88596 12 ft 3 kts 57°
2026-05-07 13:05 35.41197 132.88634 12 ft 8 kts 58°
2026-05-07 13:06 35.41232 132.88694 10 ft 9 kts 31°
2026-05-07 13:06 35.41276 132.88678 13 ft 7 kts 339°
2026-05-07 13:06 35.41335 132.88667 9 ft 11 kts 13°
2026-05-07 13:06 35.41387 132.88730 9 ft 12 kts 59°
2026-05-07 13:07 35.41423 132.88759 9 ft 6 kts 330°
2026-05-07 13:07 35.41454 132.88736 9 ft 5 kts 329°
2026-05-07 13:07 35.41471 132.88724 9 ft 1 kts 329°